[[{"header":{"parameterUnit":"m.s-1","parameterCategory":1,"la1":30.2991,"la2":30.254,"lo1":-89.0895,"lo2":-89.0444,"dy":0.0017,"dx":0.0017,"nx":28,"ny":28,"refTime":"2023-11-17T03:00:00:Z","depth":0,"parameterNumber":2,"parameterNumberName":"U-component_of_WINDS"},"data":[0,0,0,0,0,0,0,0,0,0,0,0,0,0,0,0,0,0,0,0,0,0,0,0,0,0,0,0,0,0,0,0,0,0,0,0,0,0,0,0,0,0,0,0,0,0,0,0,0,0,0,0,0,0,0,0,0,0,1.2678,1.2677,0,1.2603,1.2602,1.2601,1.2493,1.2491,1.2489,1.2487,1.2412,1.2412,1.2412,0,0,0,0,0,0,0,0,0,0,0,0,0,1.2733,1.2732,1.2678,1.2677,1.2676,1.2603,1.2602,1.2601,1.2493,1.2491,1.2489,1.2487,1.2413,1.2412,1.2412,0,0,0,0,0,0,0,0,0,0,0,0,0,1.2689,1.2732,1.2678,1.2614,1.2607,1.2603,1.2602,1.26,1.2494,1.2491,1.2488,1.2485,1.2413,1.2412,1.2412,1.2465,0,0,1.2411,1.2411,0,0,0,0,0,0,0,0,1.2691,1.2687,1.2624,1.2618,1.2611,1.2554,1.2593,1.2555,1.2494,1.2537,1.2487,1.2484,1.2462,1.2457,1.2449,1.2462,1.2459,1.2411,1.241,1.241,1.241,0,0,0,0,0,0,0,1.2694,1.2689,1.2648,1.2624,1.2615,1.259,1.258,1.2586,1.2516,1.2533,1.2525,1.2517,1.2458,1.245,1.2447,1.2458,1.2411,1.241,1.241,1.241,1.2512,1.2515,0,0,0,0,0,0,1.2707,1.2693,1.2651,1.2646,1.2645,1.2591,1.258,1.2575,1.2516,1.2504,1.252,1.2513,1.2452,1.2447,1.2444,1.2504,1.241,1.241,1.241,1.2509,1.2513,1.2516,0,0,0,0,0,0,1.2708,1.2704,1.2654,1.2667,1.2659,1.2593,1.2588,1.2575,1.2567,1.2506,1.2493,1.2524,1.245,1.2444,1.2461,1.25,1.241,1.2409,1.2506,1.2511,1.2515,1.2624,0,0,0,0,0,0,1.271,1.2705,1.2724,1.2668,1.2658,1.2672,1.259,1.2576,1.2567,1.2557,1.2507,1.2496,1.2447,1.2462,1.2461,1.2498,1.2409,1.2502,1.2508,1.2513,1.2617,1.2632,1.2644,0,0,0,0,0,1.2713,1.2758,1.2725,1.2721,1.2681,1.2674,1.2669,1.2611,1.257,1.2589,1.255,1.2497,1.2496,1.2465,1.2462,1.25,1.25,1.2506,1.2513,1.261,1.2629,1.2644,0,0,0,0,0,0,1.282,1.2749,1.2713,1.2741,1.2715,1.2656,1.2678,1.2632,1.2617,1.2608,1.2538,1.2527,1.2553,1.2528,1.2495,1.2549,1.249,1.2496,1.2565,1.2582,1.2595,1.2601,1.2409,0,0,0,0,0,1.2847,1.2847,1.2785,1.2817,1.2805,1.2744,1.2739,1.2697,1.2667,1.2655,1.2617,1.2591,1.2584,1.2581,1.2572,1.2612,1.2601,1.2637,1.2651,1.2663,1.2669,1.2691,1.2706,1.2538,1.2538,1.2538,0,0,1.2903,1.2864,1.2868,1.2837,1.2812,1.2814,1.2735,1.2741,1.2743,1.2656,1.267,1.2642,1.2607,1.2637,1.2648,1.2616,1.2713,1.2671,1.2681,1.2681,1.2699,1.2715,1.2729,1.2543,1.2542,1.2541,0,0,1.3006,1.2976,1.3,1.2976,1.2938,1.2897,1.2904,1.2852,1.283,1.2842,1.2778,1.278,1.2769,1.2748,1.2736,1.2834,1.2786,1.2833,1.2905,1.2927,1.294,1.2952,1.2988,1.3002,1.2839,1.284,1.284,0,1.308,1.3081,1.3018,1.3028,1.3017,1.2939,1.2963,1.2943,1.2905,1.2899,1.2864,1.2851,1.2823,1.2847,1.2871,1.2863,1.2869,1.2838,1.2943,1.2954,1.2964,1.2998,1.3011,1.2846,1.2845,1.2844,1.2844,0,1.3175,1.3177,1.32,1.3165,1.3156,1.3174,1.3114,1.3114,1.3073,1.3037,1.3052,1.3015,1.2997,1.3,1.296,1.3019,1.3001,1.2956,1.2895,1.2987,1.3018,1.303,1.2854,1.2852,1.285,1.2849,0,0,1.3343,1.3273,1.3283,1.3267,1.322,1.3221,1.3236,1.3218,1.322,1.3196,1.3208,1.3202,1.316,1.3147,1.3104,1.3123,1.3205,1.3075,1.3074,1.3102,1.3269,1.3304,1.332,1.3172,1.3174,1.3176,1.3273,0,1.3438,1.3458,1.3402,1.3437,1.3438,1.3365,1.3378,1.3352,1.3319,1.3316,1.328,1.3277,1.3222,1.3213,1.3229,1.3191,1.3237,1.3183,1.3183,1.3184,1.3195,1.3336,1.3372,1.3465,1.3284,1.3286,1.3287,0,1.3551,1.3533,1.3568,1.3521,1.352,1.3532,1.3513,1.3511,1.348,1.3455,1.3441,1.3391,1.3404,1.3345,1.3362,1.3327,1.3324,1.3306,1.3308,1.3306,1.3242,1.3339,1.3493,1.3508,1.3305,1.3304,1.3303,0,1.3672,1.3657,1.3676,1.3664,1.361,1.362,1.3598,1.3565,1.3558,1.3542,1.3537,1.3523,1.3515,1.3505,1.3454,1.3415,1.3478,1.3414,1.3459,1.346,1.3475,1.3475,1.3632,1.3472,1.3472,1.3472,1.3471,0,1.3784,1.3808,1.373,1.3742,1.3768,1.3704,1.3732,1.3703,1.3674,1.368,1.3616,1.3623,1.3554,1.3554,1.3514,1.3536,1.3532,1.3513,1.3503,1.352,1.3522,1.3517,1.351,1.3475,1.3475,1.3474,1.3473,0,1.3923,1.3871,1.3888,1.3835,1.3822,1.3844,1.3799,1.3809,1.3772,1.3781,1.3779,1.3722,1.3719,1.3667,1.3653,1.3626,1.3664,1.3641,1.3674,1.3667,1.3715,1.3712,1.3875,1.3894,1.3721,1.3723,1.3724,0,1.3998,1.4016,1.3965,1.3964,1.3945,1.3945,1.3938,1.3877,1.3873,1.384,1.3855,1.3846,1.3837,1.3836,1.3794,1.3783,1.376,1.3818,1.3758,1.3775,1.3762,1.3762,1.3764,1.3831,1.3833,1.3835,1.3836,0,1.4138,1.4112,1.4105,1.4089,1.4083,1.4068,1.4048,1.4052,1.3985,1.3984,1.398,1.3973,1.3958,1.3952,1.3934,1.3912,1.3864,1.3855,1.3865,1.3883,1.3903,1.3894,1.371,1.3852,1.385,1.3849,1.3848,1.3848,1.4248,1.4261,1.4228,1.4222,1.4201,1.4185,1.4192,1.4157,1.4152,1.4136,1.41,1.4103,1.4073,1.4044,1.4027,1.4029,1.3999,1.4013,1.4017,1.4022,1.4032,1.3902,1.4025,1.4024,1.4024,1.4023,1.4023,0,1.4386,1.4361,1.4357,1.4332,1.4328,1.4282,1.4259,1.426,1.4262,1.4238,1.423,1.4227,1.4221,1.4179,1.4168,1.4178,1.4156,1.4177,1.4176,1.4172,1.4058,1.4051,1.4195,1.4195,1.4195,1.4195,1.4195,1.4195,1.4457,1.4476,1.4447,1.4456,1.4431,1.4432,1.4424,1.4409,1.439,1.4389,1.4383,1.4356,1.4325,1.4312,1.4305,1.4293,1.4292,1.4322,1.4303,1.4197,1.418,1.4164,1.4158,1.4322,1.4322,1.4417,1.4418,1.4419]},{"header":{"parameterUnit":"m.s-1","parameterCategory":1,"la1":30.2991,"la2":30.254,"lo1":-89.0895,"lo2":-89.0444,"dy":0.0017,"dx":0.0017,"nx":28,"ny":28,"refTime":"2023-11-17T03:00:00:Z","depth":0,"parameterNumber":3,"parameterNumberName":"V-component_of_WINDS"},"data":[0,0,0,0,0,0,0,0,0,0,0,0,0,0,0,0,0,0,0,0,0,0,0,0,0,0,0,0,0,0,0,0,0,0,0,0,0,0,0,0,0,0,0,0,0,0,0,0,0,0,0,0,0,0,0,0,0,0,-1.3529,-1.3529,0,-1.3585,-1.3586,-1.3586,-1.3615,-1.3615,-1.3615,-1.3615,-1.3674,-1.3675,-1.3677,0,0,0,0,0,0,0,0,0,0,0,0,0,-1.3448,-1.345,-1.3529,-1.353,-1.353,-1.3585,-1.3586,-1.3586,-1.3615,-1.3615,-1.3615,-1.3615,-1.3673,-1.3675,-1.3677,0,0,0,0,0,0,0,0,0,0,0,0,0,-1.3492,-1.345,-1.3529,-1.3551,-1.3554,-1.3585,-1.3586,-1.3587,-1.3615,-1.3615,-1.3615,-1.3615,-1.3673,-1.3675,-1.3677,-1.3691,0,0,-1.3684,-1.3685,0,0,0,0,0,0,0,0,-1.3489,-1.3495,-1.3547,-1.355,-1.3553,-1.3593,-1.3579,-1.3622,-1.3615,-1.3592,-1.3615,-1.3615,-1.3647,-1.3651,-1.3662,-1.3693,-1.3696,-1.3684,-1.3686,-1.3687,-1.3687,0,0,0,0,0,0,0,-1.3486,-1.3492,-1.3551,-1.3548,-1.3551,-1.3559,-1.3565,-1.3587,-1.3619,-1.3594,-1.3596,-1.3602,-1.3648,-1.366,-1.3663,-1.3697,-1.3684,-1.3686,-1.3688,-1.3689,-1.3743,-1.3743,0,0,0,0,0,0,-1.3479,-1.349,-1.3549,-1.3553,-1.352,-1.356,-1.3567,-1.358,-1.3618,-1.3624,-1.3602,-1.3603,-1.3656,-1.3661,-1.3666,-1.3684,-1.3687,-1.3689,-1.369,-1.3743,-1.3743,-1.3743,0,0,0,0,0,0,-1.3477,-1.3484,-1.3547,-1.3522,-1.353,-1.3562,-1.3576,-1.3581,-1.3592,-1.3625,-1.3631,-1.3608,-1.3656,-1.3662,-1.3684,-1.3687,-1.369,-1.3692,-1.3743,-1.3743,-1.3743,-1.3722,0,0,0,0,0,0,-1.3475,-1.3483,-1.3488,-1.3522,-1.3532,-1.3564,-1.3576,-1.3582,-1.3596,-1.3598,-1.3631,-1.3637,-1.3656,-1.3681,-1.3687,-1.369,-1.3694,-1.3743,-1.3743,-1.3743,-1.3722,-1.3721,-1.372,0,0,0,0,0,-1.3472,-1.348,-1.3488,-1.3496,-1.3538,-1.3564,-1.357,-1.3592,-1.3596,-1.3602,-1.3623,-1.3636,-1.3686,-1.3683,-1.369,-1.3694,-1.3743,-1.3743,-1.3743,-1.3723,-1.3721,-1.372,0,0,0,0,0,0,-1.3446,-1.3485,-1.3495,-1.3514,-1.3535,-1.3569,-1.3577,-1.3589,-1.3611,-1.3612,-1.3639,-1.3646,-1.3666,-1.3682,-1.3678,-1.3709,-1.3716,-1.3717,-1.3698,-1.3697,-1.3695,-1.3691,-1.3696,0,0,0,0,0,-1.3443,-1.346,-1.3493,-1.3507,-1.3517,-1.3545,-1.3557,-1.3572,-1.3596,-1.3605,-1.3628,-1.3651,-1.3672,-1.3685,-1.3706,-1.3725,-1.3733,-1.3731,-1.373,-1.3729,-1.373,-1.3742,-1.3742,-1.3744,-1.3744,-1.3744,0,0,-1.3436,-1.3459,-1.3469,-1.3502,-1.3521,-1.3539,-1.3553,-1.3571,-1.3585,-1.3608,-1.363,-1.3648,-1.3676,-1.3696,-1.3706,-1.371,-1.3731,-1.3729,-1.3728,-1.373,-1.3742,-1.3742,-1.3742,-1.3744,-1.3744,-1.3744,0,0,-1.3433,-1.3452,-1.3465,-1.3484,-1.3512,-1.3531,-1.3534,-1.3566,-1.3578,-1.3601,-1.3619,-1.3637,-1.3672,-1.3691,-1.3705,-1.371,-1.3723,-1.3716,-1.371,-1.3722,-1.3721,-1.3721,-1.3724,-1.3724,-1.3717,-1.3717,-1.3717,0,-1.3421,-1.3448,-1.3471,-1.3488,-1.3503,-1.3525,-1.354,-1.3557,-1.3591,-1.3601,-1.3605,-1.365,-1.367,-1.3696,-1.3697,-1.3708,-1.3713,-1.3713,-1.372,-1.372,-1.372,-1.3723,-1.3723,-1.3716,-1.3716,-1.3716,-1.3717,0,-1.3432,-1.3451,-1.3459,-1.349,-1.3506,-1.3522,-1.3548,-1.3561,-1.3575,-1.3593,-1.3617,-1.3642,-1.3669,-1.3676,-1.369,-1.3704,-1.3706,-1.3714,-1.3721,-1.3719,-1.3721,-1.3723,-1.3715,-1.3715,-1.3715,-1.3716,0,0,-1.3414,-1.3458,-1.3461,-1.3476,-1.3509,-1.3524,-1.3541,-1.3568,-1.3579,-1.3601,-1.3617,-1.3647,-1.3655,-1.3672,-1.3688,-1.3698,-1.3701,-1.3706,-1.3707,-1.3704,-1.3719,-1.3713,-1.3713,-1.371,-1.371,-1.3711,-1.3717,0,-1.3415,-1.3447,-1.3468,-1.3492,-1.351,-1.3532,-1.3547,-1.3569,-1.3587,-1.3606,-1.3626,-1.3646,-1.3656,-1.3666,-1.3677,-1.3698,-1.3705,-1.3698,-1.3726,-1.3726,-1.3718,-1.3715,-1.3708,-1.3713,-1.3718,-1.3719,-1.3719,0,-1.3421,-1.3443,-1.3468,-1.3499,-1.3508,-1.3521,-1.3547,-1.3564,-1.3591,-1.3603,-1.3621,-1.3638,-1.3659,-1.3664,-1.3693,-1.3688,-1.3701,-1.3713,-1.3714,-1.3717,-1.3722,-1.3719,-1.3715,-1.3716,-1.3721,-1.372,-1.372,0,-1.3405,-1.3441,-1.3461,-1.3473,-1.3511,-1.3519,-1.3536,-1.3562,-1.3576,-1.36,-1.3609,-1.3635,-1.3649,-1.3668,-1.3692,-1.3693,-1.3719,-1.3725,-1.373,-1.3729,-1.3734,-1.3734,-1.3733,-1.3742,-1.3742,-1.3742,-1.3742,0,-1.3405,-1.3419,-1.3455,-1.3467,-1.3484,-1.3509,-1.3526,-1.3544,-1.3567,-1.3584,-1.3605,-1.362,-1.365,-1.367,-1.3689,-1.371,-1.3716,-1.3727,-1.3732,-1.3726,-1.3724,-1.3734,-1.3735,-1.3742,-1.3742,-1.3742,-1.3742,0,-1.339,-1.3414,-1.3438,-1.3471,-1.348,-1.3491,-1.3521,-1.3534,-1.3553,-1.3574,-1.3581,-1.3611,-1.3635,-1.3661,-1.3693,-1.3706,-1.3727,-1.3733,-1.3718,-1.372,-1.3724,-1.3723,-1.3729,-1.3732,-1.3739,-1.3739,-1.3739,0,-1.3389,-1.34,-1.3435,-1.3448,-1.3463,-1.3483,-1.3498,-1.3524,-1.3539,-1.357,-1.358,-1.3605,-1.3627,-1.3664,-1.369,-1.3715,-1.3723,-1.3724,-1.3727,-1.372,-1.3724,-1.3723,-1.3725,-1.3722,-1.3722,-1.3722,-1.3722,0,-1.3383,-1.3394,-1.3415,-1.344,-1.3457,-1.3478,-1.35,-1.3509,-1.3539,-1.3555,-1.358,-1.3597,-1.363,-1.3656,-1.3685,-1.3702,-1.3718,-1.3721,-1.3723,-1.3717,-1.3707,-1.3713,-1.3715,-1.372,-1.372,-1.3721,-1.3721,-1.3721,-1.3375,-1.3387,-1.3413,-1.3436,-1.3455,-1.3475,-1.3489,-1.351,-1.3531,-1.356,-1.3574,-1.3599,-1.3626,-1.3666,-1.3684,-1.3704,-1.3709,-1.3712,-1.3713,-1.3714,-1.3712,-1.3704,-1.371,-1.371,-1.371,-1.371,-1.371,0,-1.3371,-1.3389,-1.3409,-1.3439,-1.3457,-1.347,-1.3495,-1.3509,-1.353,-1.3554,-1.3575,-1.3604,-1.3629,-1.3657,-1.3684,-1.3695,-1.3703,-1.3701,-1.3701,-1.3705,-1.3706,-1.3702,-1.3695,-1.3695,-1.3695,-1.3695,-1.3695,-1.3695,-1.3371,-1.3391,-1.3406,-1.3437,-1.3455,-1.3479,-1.3493,-1.3512,-1.3531,-1.3562,-1.3583,-1.3601,-1.3627,-1.3656,-1.368,-1.3687,-1.3697,-1.3693,-1.3703,-1.3704,-1.3705,-1.3706,-1.3702,-1.3695,-1.3695,-1.37,-1.37,-1.37]}]]